When you browse on this site, cookies collect data to enhance your experience and personalize the content and advertising you see.
Visit our Privacy Policy to learn more. By continuing to use the site, you agree to this use of cookies and data.

Hourly Weather Bijeljina

Today, 9 July, Thursday

Time Temperature Precipitation Wind Pressure Humidity
00:00 +15°C° 0 mm 1 mps 756 mmHg 80%
01:00 +15°C° 0 mm 1 mps 756 mmHg 83%
02:00 +15°C° 0 mm 1 mps 756 mmHg 85%
03:00 +15°C° 0 mm 1 mps 756 mmHg 86%
04:00 +14°C° 0 mm 1 mps 755 mmHg 87%
05:00 +16°C° 0 mm 1 mps 756 mmHg 83%
06:00 +19°C° 0 mm 1 mps 756 mmHg 79%
07:00 +19°C° 0 mm 0 mps 756 mmHg 74%
08:00 +23°C° 0 mm 1 mps 756 mmHg 69%
09:00 +24°C° 0 mm 1 mps 756 mmHg 64%
10:00 +26°C° 0 mm 2 mps 756 mmHg 59%
11:00 +27°C° 0 mm 2 mps 756 mmHg 57%
12:00 +28°C° 0 mm 3 mps 756 mmHg 55%
13:00 +29°C° 0 mm 3 mps 756 mmHg 53%
14:00 +29°C° 0 mm 3 mps 756 mmHg 55%
15:00 +29°C° 0 mm 3 mps 755 mmHg 56%
16:00 +29°C° 0 mm 3 mps 755 mmHg 58%
17:00 +27°C° 0 mm 3 mps 755 mmHg 64%
18:00 +25°C° 0 mm 2 mps 755 mmHg 70%
19:00 +24°C° 0 mm 2 mps 755 mmHg 76%
20:00 +23°C° 0 mm 2 mps 755 mmHg 77%
21:00 +21°C° 0 mm 2 mps 755 mmHg 78%
22:00 +20°C° 0 mm 2 mps 755 mmHg 79%
23:00 +19°C° 0 mm 2 mps 755 mmHg 81%

Tomorrow, 10 July, Friday

Time Temperature Precipitation Wind Pressure Humidity
00:00 +19°C° 0 mm 2 mps 755 mmHg 82%
01:00 +18°C° 0 mm 2 mps 755 mmHg 84%
02:00 +18°C° 0 mm 2 mps 755 mmHg 84%
03:00 +17°C° 0 mm 2 mps 754 mmHg 85%
04:00 +17°C° 0 mm 2 mps 754 mmHg 86%
05:00 +19°C° 0 mm 2 mps 754 mmHg 81%
06:00 +21°C° 0 mm 1 mps 754 mmHg 76%
07:00 +23°C° 0 mm 1 mps 754 mmHg 71%
08:00 +25°C° 0 mm 2 mps 754 mmHg 67%
09:00 +27°C° 0 mm 2 mps 754 mmHg 62%
10:00 +29°C° 0 mm 3 mps 754 mmHg 58%
11:00 +30°C° 0 mm 3 mps 754 mmHg 57%
12:00 +30°C° 0 mm 3 mps 753 mmHg 56%
13:00 +32°C° 0 mm 4 mps 753 mmHg 55%
14:00 +32°C° 0 mm 4 mps 753 mmHg 56%
15:00 +32°C° 0 mm 4 mps 752 mmHg 57%
16:00 +32°C° 0 mm 4 mps 752 mmHg 58%
17:00 +29°C° 0 mm 3 mps 752 mmHg 64%
18:00 +28°C° 0 mm 3 mps 752 mmHg 70%
19:00 +26°C° 0 mm 2 mps 752 mmHg 75%
20:00 +25°C° 0 mm 2 mps 752 mmHg 76%
21:00 +24°C° 0 mm 2 mps 752 mmHg 78%
22:00 +23°C° 0 mm 2 mps 752 mmHg 79%
23:00 +21°C° 0 mm 2 mps 752 mmHg 81%

Day after tomorrow, 11 July, Saturday

Time Temperature Precipitation Wind Pressure Humidity
00:00 +21°C° 0 mm 2 mps 752 mmHg 82%
01:00 +21°C° 0 mm 1 mps 752 mmHg 83%
02:00 +21°C° 0 mm 1 mps 752 mmHg 84%
03:00 +21°C° 0 mm 1 mps 752 mmHg 85%
04:00 +20°C° 0 mm 1 mps 752 mmHg 85%
05:00 +22°C° 0 mm 1 mps 752 mmHg 82%
06:00 +24°C° 0 mm 1 mps 752 mmHg 79%
07:00 +23°C° 0 mm 0 mps 752 mmHg 75%
08:00 +25°C° 0 mm 0 mps 752 mmHg 71%
09:00 +27°C° 0 mm 0 mps 752 mmHg 67%
10:00 +28°C° 0 mm 0 mps 752 mmHg 62%
11:00 +31°C° 0 mm 1 mps 752 mmHg 59%
12:00 +32°C° 0 mm 1 mps 752 mmHg 56%
13:00 +33°C° 0 mm 1 mps 751 mmHg 53%
14:00 +33°C° 0 mm 1 mps 751 mmHg 53%
15:00 +33°C° 0 mm 1 mps 751 mmHg 53%
16:00 +33°C° 0 mm 1 mps 751 mmHg 53%
17:00 +31°C° 0.2 mm 1 mps 751 mmHg 60%
18:00 +29°C° 0.2 mm 1 mps 751 mmHg 66%
19:00 +28°C° 0.2 mm 1 mps 751 mmHg 72%
20:00 +25°C° 1.2 mm 2 mps 752 mmHg 79%
21:00 +22°C° 1.2 mm 4 mps 752 mmHg 85%
22:00 +20°C° 1.2 mm 6 mps 753 mmHg 92%
23:00 +19°C° 0.7 mm 5 mps 753 mmHg 93%

12 July, Sunday

Time Temperature Precipitation Wind Pressure Humidity
00:00 +17°C° 0.7 mm 5 mps 753 mmHg 93%
01:00 +16°C° 0.7 mm 5 mps 754 mmHg 94%
02:00 +16°C° 0.3 mm 5 mps 754 mmHg 93%
03:00 +15°C° 0.3 mm 5 mps 754 mmHg 93%
04:00 +15°C° 0.3 mm 5 mps 754 mmHg 93%
05:00 +15°C° 0.1 mm 5 mps 755 mmHg 91%
06:00 +15°C° 0.1 mm 4 mps 755 mmHg 90%
07:00 +15°C° 0.1 mm 4 mps 756 mmHg 88%
08:00 +16°C° 0 mm 5 mps 756 mmHg 84%
09:00 +17°C° 0 mm 5 mps 757 mmHg 79%
10:00 +19°C° 0 mm 5 mps 757 mmHg 75%
11:00 +19°C° 0 mm 5 mps 757 mmHg 72%
12:00 +20°C° 0 mm 5 mps 757 mmHg 70%
13:00 +20°C° 0 mm 5 mps 757 mmHg 67%
14:00 +21°C° 0 mm 5 mps 757 mmHg 65%
15:00 +21°C° 0 mm 4 mps 757 mmHg 64%
16:00 +22°C° 0 mm 4 mps 756 mmHg 62%
17:00 +21°C° 0 mm 4 mps 757 mmHg 67%
18:00 +20°C° 0 mm 3 mps 757 mmHg 73%
19:00 +18°C° 0 mm 3 mps 757 mmHg 78%
20:00 +17°C° 0 mm 2 mps 758 mmHg 84%
21:00 +15°C° 0 mm 2 mps 758 mmHg 89%
22:00 +14°C° 0 mm 1 mps 758 mmHg 94%
23:00 +13°C° 0 mm 1 mps 758 mmHg 94%

13 July, Monday

Time Temperature Precipitation Wind Pressure Humidity
00:00 +13°C° 0 mm 1 mps 758 mmHg 94%
01:00 +11°C° 0 mm 0 mps 758 mmHg 94%
02:00 +12°C° 0 mm 1 mps 758 mmHg 93%
03:00 +12°C° 0 mm 1 mps 758 mmHg 93%
04:00 +11°C° 0 mm 1 mps 758 mmHg 93%
05:00 +13°C° 0 mm 1 mps 758 mmHg 87%
06:00 +15°C° 0 mm 1 mps 758 mmHg 82%
07:00 +16°C° 0 mm 1 mps 758 mmHg 76%
08:00 +19°C° 0 mm 1 mps 758 mmHg 70%
09:00 +20°C° 0 mm 1 mps 758 mmHg 64%
10:00 +22°C° 0 mm 1 mps 758 mmHg 58%
11:00 +22°C° 0 mm 1 mps 757 mmHg 57%
12:00 +23°C° 0 mm 1 mps 757 mmHg 55%
13:00 +23°C° 0 mm 2 mps 756 mmHg 53%
14:00 +23°C° 0 mm 2 mps 756 mmHg 52%
15:00 +23°C° 0 mm 2 mps 755 mmHg 52%
16:00 +24°C° 0 mm 2 mps 755 mmHg 51%
17:00 +22°C° 0 mm 1 mps 755 mmHg 57%
18:00 +21°C° 0 mm 1 mps 755 mmHg 63%
19:00 +19°C° 0 mm 1 mps 755 mmHg 69%
20:00 +18°C° 0 mm 1 mps 755 mmHg 73%
21:00 +15°C° 0 mm 1 mps 756 mmHg 77%
22:00 +13°C° 0 mm 0 mps 756 mmHg 81%
23:00 +14°C° 0 mm 1 mps 756 mmHg 82%

14 July, Tuesday

Time Temperature Precipitation Wind Pressure Humidity
00:00 +13°C° 0 mm 1 mps 756 mmHg 83%
01:00 +13°C° 0 mm 1 mps 756 mmHg 85%
02:00 +12°C° 0 mm 1 mps 755 mmHg 86%
03:00 +12°C° 0 mm 1 mps 755 mmHg 87%
04:00 +12°C° 0 mm 1 mps 755 mmHg 89%
05:00 +13°C° 0 mm 1 mps 755 mmHg 83%
06:00 +15°C° 0 mm 1 mps 755 mmHg 77%
07:00 +18°C° 0 mm 1 mps 755 mmHg 72%
08:00 +19°C° 0 mm 2 mps 755 mmHg 67%
09:00 +20°C° 0 mm 2 mps 755 mmHg 63%
10:00 +23°C° 0 mm 2 mps 755 mmHg 58%
11:00 +23°C° 0 mm 1 mps 754 mmHg 55%
12:00 +24°C° 0 mm 1 mps 754 mmHg 52%
13:00 +25°C° 0 mm 1 mps 754 mmHg 50%
14:00 +25°C° 0 mm 1 mps 753 mmHg 49%
15:00 +25°C° 0 mm 1 mps 753 mmHg 49%
16:00 +25°C° 0 mm 1 mps 753 mmHg 49%
17:00 +23°C° 0 mm 1 mps 753 mmHg 55%
18:00 +22°C° 0 mm 1 mps 753 mmHg 61%
19:00 +18°C° 0 mm 0 mps 753 mmHg 67%
20:00 +19°C° 0 mm 1 mps 754 mmHg 70%
21:00 +18°C° 0 mm 1 mps 754 mmHg 73%
22:00 +16°C° 0 mm 1 mps 754 mmHg 75%
23:00 +15°C° 0 mm 1 mps 754 mmHg 78%
Show more